| time (UTC) | temp C | wind direction | speed KPH | gust KPH | rain 1hr cm | rain 24hr cm | rain mn cm | humidity % | barometer mb |
| 20260510000120 | 10 | 136 | 1.6 | 1.6 | 0.00 | 0.81 | 0.81 | 95 | 1007.0 |
| 20260509235615 | 10 | 152 | 1.6 | 1.6 | 0.00 | 0.81 | 0.81 | 94 | 1006.9 |
| 20260509235112 | 10 | 153 | 0.0 | 0.0 | 0.00 | 0.81 | 0.81 | 94 | 1006.8 |
| 20260509234608 | 10 | 135 | 0.0 | 0.0 | 0.00 | 0.81 | 0.81 | 94 | 1006.7 |
| 20260509234106 | 11 | 135 | 1.6 | 1.6 | 0.00 | 0.81 | 0.81 | 93 | 1006.7 |
| 20260509233603 | 11 | 170 | 1.6 | 1.6 | 0.00 | 0.81 | 0.81 | 92 | 1006.9 |
| 20260509233101 | 11 | 183 | 0.0 | 0.0 | 0.00 | 0.81 | 0.81 | 92 | 1006.7 |
| 20260509232557 | 11 | 137 | 1.6 | 1.6 | 0.00 | 0.81 | 0.81 | 92 | 1006.5 |
| 20260509232054 | 11 | 140 | 0.0 | 0.0 | 0.00 | 0.81 | 0.81 | 91 | 1006.8 |
| 20260509231550 | 12 | 188 | 3.2 | 3.2 | 0.00 | 0.81 | 0.81 | 90 | 1006.3 |
| 20260509231048 | 12 | 134 | 1.6 | 3.2 | 0.00 | 0.81 | 0.81 | 91 | 1006.5 |
| 20260509230544 | 11 | 128 | 3.2 | 3.2 | 0.00 | 0.81 | 0.81 | 91 | 1006.3 |
| 20260509230042 | 11 | 195 | 3.2 | 3.2 | 0.00 | 0.81 | 0.81 | 91 | 1006.8 |
| 20260509225537 | 11 | 170 | 0.0 | 0.0 | 0.00 | 0.81 | 0.81 | 91 | 1006.7 |
| 20260509225033 | 11 | 197 | 1.6 | 1.6 | 0.00 | 0.81 | 0.81 | 91 | 1006.8 |
| 20260509224529 | 11 | 190 | 1.6 | 1.6 | 0.00 | 0.81 | 0.81 | 91 | 1006.8 |
| 20260509224026 | 11 | 203 | 1.6 | 1.6 | 0.00 | 0.81 | 0.81 | 91 | 1006.7 |
| 20260509223522 | 11 | 155 | 3.2 | 3.2 | 0.00 | 0.81 | 0.81 | 91 | 1006.9 |
| 20260509223021 | 11 | 187 | 1.6 | 3.2 | 0.00 | 0.81 | 0.81 | 91 | 1006.9 |
| 20260509222516 | 12 | 205 | 1.6 | 1.6 | 0.00 | 0.81 | 0.81 | 90 | 1006.9 |
| 20260509222012 | 12 | 179 | 3.2 | 3.2 | 0.00 | 0.81 | 0.81 | 90 | 1006.7 |
| 20260509221508 | 12 | 145 | 3.2 | 4.8 | 0.00 | 0.81 | 0.81 | 92 | 1006.9 |
| 20260509221004 | 11 | 145 | 0.0 | 1.6 | 0.00 | 0.81 | 0.81 | 92 | 1006.9 |
| 20260509220500 | 11 | 189 | 0.0 | 0.0 | 0.00 | 0.81 | 0.81 | 92 | 1006.8 |
| 20260509215956 | 11 | 142 | 4.8 | 4.8 | 0.00 | 0.81 | 0.81 | 91 | 1006.8 |
| 20260509215452 | 11 | 238 | 3.2 | 3.2 | 0.00 | 0.81 | 0.81 | 92 | 1006.7 |
| 20260509214950 | 11 | 136 | 3.2 | 3.2 | 0.00 | 0.81 | 0.81 | 92 | 1006.5 |
| 20260509214447 | 11 | 138 | 3.2 | 3.2 | 0.00 | 0.81 | 0.81 | 92 | 1006.8 |
| 20260509213943 | 11 | 181 | 1.6 | 1.6 | 0.00 | 0.81 | 0.81 | 93 | 1006.8 |
| 20260509213439 | 11 | 153 | 3.2 | 6.4 | 0.00 | 0.81 | 0.81 | 92 | 1006.9 |
| 20260509212937 | 11 | 182 | 1.6 | 1.6 | 0.00 | 0.81 | 0.81 | 92 | 1006.9 |
| 20260509212434 | 11 | 201 | 1.6 | 1.6 | 0.00 | 0.81 | 0.81 | 93 | 1007.1 |
| 20260509211930 | 11 | 203 | 0.0 | 1.6 | 0.00 | 0.81 | 0.81 | 93 | 1007.0 |
| 20260509211426 | 11 | 163 | 1.6 | 3.2 | 0.00 | 0.81 | 0.81 | 93 | 1007.0 |
| 20260509210922 | 11 | 266 | 8.0 | 12.9 | 0.00 | 0.81 | 0.81 | 93 | 1006.9 |
| 20260509210420 | 11 | 129 | 3.2 | 6.4 | 0.00 | 0.81 | 0.81 | 93 | 1006.9 |
| 20260509205915 | 11 | 135 | 3.2 | 4.8 | 0.00 | 0.81 | 0.81 | 93 | 1007.2 |
| 20260509205415 | 11 | 141 | 3.2 | 3.2 | 0.00 | 0.81 | 0.81 | 94 | 1007.3 |
| 20260509204911 | 11 | 236 | 3.2 | 4.8 | 0.00 | 0.81 | 0.81 | 94 | 1007.3 |
| 20260509204408 | 11 | 209 | 0.0 | 1.6 | 0.00 | 0.81 | 0.81 | 93 | 1007.3 |
| 20260509203904 | 11 | 261 | 6.4 | 9.7 | 0.00 | 0.81 | 0.81 | 94 | 1007.1 |
| 20260509203400 | 11 | 183 | 1.6 | 3.2 | 0.00 | 0.81 | 0.81 | 94 | 1007.5 |
| 20260509202858 | 11 | 143 | 0.0 | 0.0 | 0.00 | 0.81 | 0.81 | 94 | 1007.4 |
| 20260509202353 | 11 | 195 | 4.8 | 6.4 | 0.00 | 0.81 | 0.81 | 94 | 1007.7 |
| 20260509201849 | 11 | 169 | 3.2 | 3.2 | 0.00 | 0.81 | 0.81 | 93 | 1007.5 |
| 20260509201344 | 11 | 155 | 6.4 | 9.7 | 0.00 | 0.81 | 0.81 | 93 | 1007.5 |
| 20260509200841 | 11 | 187 | 0.0 | 0.0 | 0.00 | 0.81 | 0.81 | 94 | 1007.5 |
| 20260509200336 | 11 | 160 | 3.2 | 4.8 | 0.00 | 0.81 | 0.81 | 94 | 1007.8 |
| 20260509195833 | 11 | 149 | 1.6 | 1.6 | 0.00 | 0.81 | 0.81 | 94 | 1007.8 |
| 20260509195333 | 10 | 176 | 4.8 | 4.8 | 0.00 | 0.81 | 0.81 | 94 | 1007.7 |
| 20260509194833 | 10 | 167 | 1.6 | 3.2 | 0.00 | 0.81 | 0.81 | 94 | 1007.9 |
| 20260509194329 | 10 | 173 | 1.6 | 1.6 | 0.00 | 0.81 | 0.81 | 94 | 1007.9 |
| 20260509193827 | 10 | 174 | 3.2 | 6.4 | 0.00 | 0.81 | 0.81 | 94 | 1007.9 |
| 20260509193326 | 10 | 124 | 1.6 | 3.2 | 0.00 | 0.81 | 0.81 | 94 | 1008.1 |
| 20260509192823 | 10 | 110 | 3.2 | 3.2 | 0.00 | 0.81 | 0.81 | 94 | 1008.1 |
| 20260509192319 | 10 | 138 | 1.6 | 1.6 | 0.00 | 0.81 | 0.81 | 94 | 1008.0 |
| 20260509191814 | 10 | 107 | 0.0 | 1.6 | 0.00 | 0.81 | 0.81 | 95 | 1008.0 |
| 20260509191310 | 10 | 168 | 1.6 | 3.2 | 0.00 | 0.81 | 0.81 | 95 | 1008.1 |
| 20260509190806 | 10 | 223 | 3.2 | 3.2 | 0.00 | 0.81 | 0.81 | 95 | 1008.1 |
| 20260509190304 | 10 | 147 | 0.0 | 0.0 | 0.00 | 0.81 | 0.81 | 95 | 1008.2 |
| 20260509185801 | 10 | 154 | 1.6 | 1.6 | 0.00 | 0.81 | 0.81 | 95 | 1008.2 |
| 20260509185257 | 10 | 186 | 1.6 | 1.6 | 0.00 | 0.81 | 0.81 | 95 | 1008.1 |
| 20260509184754 | 10 | 131 | 1.6 | 1.6 | 0.00 | 0.81 | 0.81 | 95 | 1008.2 |
| 20260509184252 | 10 | 160 | 1.6 | 1.6 | 0.00 | 0.81 | 0.81 | 94 | 1008.2 |
| 20260509183748 | 10 | 176 | 1.6 | 1.6 | 0.00 | 0.81 | 0.81 | 94 | 1008.3 |
| 20260509183244 | 10 | 169 | 0.0 | 1.6 | 0.00 | 0.81 | 0.81 | 94 | 1008.3 |
| 20260509182739 | 10 | 179 | 3.2 | 4.8 | 0.00 | 0.81 | 0.81 | 94 | 1008.1 |
| 20260509182237 | 10 | 184 | 1.6 | 1.6 | 0.00 | 0.81 | 0.81 | 95 | 1008.1 |
| 20260509181734 | 10 | 149 | 0.0 | 1.6 | 0.00 | 0.81 | 0.81 | 94 | 1008.2 |
| 20260509181232 | 10 | 160 | 3.2 | 4.8 | 0.00 | 0.81 | 0.81 | 95 | 1008.1 |
| 20260509180729 | 10 | 164 | 1.6 | 3.2 | 0.00 | 0.81 | 0.81 | 95 | 1008.3 |
| 20260509180225 | 10 | 166 | 1.6 | 1.6 | 0.00 | 0.81 | 0.81 | 95 | 1008.1 |
| 20260509175721 | 10 | 165 | 0.0 | 1.6 | 0.00 | 0.81 | 0.81 | 95 | 1008.1 |
| 20260509175218 | 10 | 131 | 0.0 | 1.6 | 0.00 | 0.81 | 0.81 | 95 | 1008.3 |
| 20260509174714 | 10 | 127 | 3.2 | 4.8 | 0.00 | 0.81 | 0.81 | 95 | 1008.1 |
| 20260509174209 | 10 | 143 | 0.0 | 1.6 | 0.00 | 0.81 | 0.81 | 95 | 1008.0 |
| 20260509173705 | 10 | 135 | 1.6 | 3.2 | 0.00 | 0.81 | 0.81 | 96 | 1008.1 |
| 20260509173201 | 10 | 233 | 1.6 | 3.2 | 0.00 | 0.81 | 0.81 | 96 | 1008.1 |
| 20260509172657 | 10 | 151 | 1.6 | 1.6 | 0.00 | 0.81 | 0.81 | 96 | 1008.2 |
| 20260509172154 | 10 | 139 | 1.6 | 3.2 | 0.00 | 0.81 | 0.81 | 96 | 1008.2 |
| 20260509171649 | 10 | 151 | 1.6 | 1.6 | 0.00 | 0.81 | 0.81 | 96 | 1008.1 |
| 20260509171146 | 10 | 171 | 0.0 | 1.6 | 0.00 | 0.81 | 0.81 | 96 | 1008.0 |
| 20260509170643 | 10 | 183 | 1.6 | 3.2 | 0.00 | 0.81 | 0.81 | 96 | 1008.0 |
| 20260509170138 | 10 | 142 | 0.0 | 1.6 | 0.00 | 0.81 | 0.81 | 96 | 1008.0 |
| 20260509165637 | 10 | 163 | 1.6 | 3.2 | 0.00 | 0.81 | 0.81 | 96 | 1008.0 |
| 20260509165133 | 10 | 195 | 3.2 | 3.2 | 0.00 | 0.81 | 0.81 | 96 | 1008.1 |
| 20260509164629 | 10 | 156 | 3.2 | 3.2 | 0.00 | 0.81 | 0.81 | 96 | 1008.3 |
| 20260509164125 | 10 | 185 | 4.8 | 4.8 | 0.00 | 0.81 | 0.81 | 96 | 1008.1 |
| 20260509163623 | 10 | 238 | 6.4 | 9.7 | 0.00 | 0.81 | 0.81 | 96 | 1008.4 |
| 20260509163118 | 10 | 148 | 3.2 | 3.2 | 0.00 | 0.81 | 0.81 | 96 | 1008.4 |
| 20260509162616 | 10 | 162 | 1.6 | 1.6 | 0.00 | 0.81 | 0.81 | 96 | 1008.4 |
| 20260509162111 | 10 | 258 | 3.2 | 4.8 | 0.00 | 0.81 | 0.81 | 96 | 1008.3 |
| 20260509161608 | 10 | 142 | 1.6 | 3.2 | 0.13 | 0.81 | 0.81 | 96 | 1008.4 |
| 20260509161108 | 10 | 146 | 1.6 | 3.2 | 0.13 | 0.81 | 0.81 | 96 | 1008.3 |
| 20260509160604 | 10 | 157 | 1.6 | 3.2 | 0.18 | 0.79 | 0.79 | 96 | 1008.6 |
| 20260509160059 | 10 | 179 | 1.6 | 3.2 | 0.18 | 0.79 | 0.79 | 95 | 1008.5 |
| 20260509155556 | 10 | 176 | 4.8 | 9.7 | 0.18 | 0.79 | 0.79 | 94 | 1008.7 |
| 20260509155053 | 10 | 233 | 4.8 | 6.4 | 0.00 | 0.76 | 0.76 | 94 | 1008.5 |
| 20260509154548 | 10 | 173 | 1.6 | 3.2 | 0.13 | 0.76 | 0.76 | 95 | 1008.5 |
| 20260509154046 | 10 | 201 | 4.8 | 4.8 | 0.13 | 0.76 | 0.76 | 94 | 1008.6 |
| 20260509153543 | 10 | 148 | 1.6 | 1.6 | 0.00 | 0.74 | 0.74 | 95 | 1008.8 |
| 20260509153040 | 10 | 138 | 0.0 | 0.0 | 0.00 | 0.74 | 0.74 | 95 | 1008.7 |
| 20260509152536 | 10 | 137 | 1.6 | 1.6 | 0.00 | 0.74 | 0.74 | 95 | 1008.5 |
| 20260509152033 | 10 | 147 | 4.8 | 6.4 | 0.00 | 0.74 | 0.74 | 95 | 1008.7 |
| 20260509151529 | 10 | 76 | 6.4 | 11.3 | 0.00 | 0.74 | 0.74 | 95 | 1008.7 |
| 20260509151027 | 10 | 187 | 6.4 | 6.4 | 0.00 | 0.74 | 0.74 | 95 | 1008.8 |
| 20260509150524 | 10 | 195 | 1.6 | 1.6 | 0.18 | 0.74 | 0.74 | 96 | 1008.7 |
| 20260509150023 | 10 | 204 | 4.8 | 6.4 | 0.18 | 0.74 | 0.74 | 96 | 1008.8 |
| 20260509145518 | 10 | 264 | 3.2 | 4.8 | 0.00 | 0.71 | 0.71 | 96 | 1008.8 |
| 20260509145013 | 10 | 165 | 1.6 | 3.2 | 0.00 | 0.71 | 0.71 | 96 | 1008.8 |
| 20260509144510 | 10 | 172 | 3.2 | 3.2 | 0.13 | 0.71 | 0.71 | 97 | 1008.9 |
| 20260509144008 | 9 | 141 | 0.0 | 0.0 | 0.13 | 0.71 | 0.71 | 97 | 1009.1 |
| 20260509143505 | 9 | 148 | 1.6 | 3.2 | 0.00 | 0.69 | 0.69 | 97 | 1009.1 |
| 20260509143002 | 9 | 163 | 1.6 | 1.6 | 0.00 | 0.69 | 0.69 | 97 | 1009.3 |
| 20260509142458 | 9 | 170 | 3.2 | 3.2 | 0.18 | 0.69 | 0.69 | 98 | 1009.4 |
| 20260509141953 | 9 | 126 | 6.4 | 9.7 | 0.18 | 0.69 | 0.69 | 97 | 1009.3 |
| 20260509141449 | 8 | 128 | 1.6 | 1.6 | 0.13 | 0.66 | 0.66 | 98 | 1009.1 |
| 20260509140947 | 8 | 138 | 1.6 | 1.6 | 0.13 | 0.66 | 0.66 | 98 | 1009.4 |
| 20260509140443 | 8 | 155 | 0.0 | 0.0 | 0.18 | 0.64 | 0.64 | 98 | 1009.4 |
| 20260509135942 | 8 | 202 | 1.6 | 3.2 | 0.18 | 0.64 | 0.64 | 98 | 1009.4 |
| 20260509135439 | 8 | 177 | 1.6 | 1.6 | 0.18 | 0.64 | 0.64 | 98 | 1009.3 |
| 20260509134936 | 8 | 177 | 0.0 | 0.0 | 0.00 | 0.61 | 0.61 | 98 | 1009.1 |
| 20260509134433 | 8 | 207 | 3.2 | 3.2 | 0.18 | 0.61 | 0.61 | 98 | 1009.4 |
| 20260509133931 | 8 | 151 | 0.0 | 0.0 | 0.18 | 0.61 | 0.61 | 98 | 1009.4 |
| 20260509133426 | 8 | 153 | 0.0 | 0.0 | 0.13 | 0.58 | 0.58 | 98 | 1009.4 |
| 20260509132925 | 8 | 151 | 0.0 | 0.0 | 0.13 | 0.58 | 0.58 | 98 | 1009.6 |
| 20260509132423 | 8 | 188 | 1.6 | 1.6 | 0.18 | 0.56 | 0.56 | 98 | 1009.4 |
| 20260509131920 | 8 | 151 | 4.8 | 4.8 | 0.18 | 0.56 | 0.56 | 98 | 1009.5 |
| 20260509131417 | 8 | 168 | 3.2 | 3.2 | 0.13 | 0.53 | 0.53 | 98 | 1009.4 |
| 20260509130914 | 8 | 182 | 3.2 | 3.2 | 0.13 | 0.53 | 0.53 | 98 | 1009.6 |
| 20260509130409 | 8 | 139 | 1.6 | 1.6 | 0.00 | 0.51 | 0.51 | 98 | 1009.3 |
| 20260509125906 | 8 | 165 | 1.6 | 1.6 | 0.18 | 0.51 | 0.51 | 98 | 1009.5 |
| 20260509125403 | 8 | 151 | 1.6 | 1.6 | 0.18 | 0.51 | 0.51 | 98 | 1009.5 |
| 20260509124859 | 8 | 150 | 1.6 | 3.2 | 0.30 | 0.48 | 0.48 | 98 | 1009.7 |
| 20260509124356 | 8 | 197 | 0.0 | 0.0 | 0.30 | 0.48 | 0.48 | 98 | 1009.7 |
| 20260509123854 | 8 | 170 | 1.6 | 1.6 | 0.30 | 0.46 | 0.46 | 98 | 1009.6 |
| 20260509123351 | 8 | 133 | 0.0 | 0.0 | 0.13 | 0.43 | 0.43 | 99 | 1009.5 |
| 20260509122846 | 8 | 152 | 3.2 | 4.8 | 0.18 | 0.41 | 0.41 | 99 | 1009.7 |
| 20260509122343 | 8 | 177 | 0.0 | 1.6 | 0.30 | 0.41 | 0.41 | 99 | 1010.0 |
| 20260509121840 | 8 | 105 | 0.0 | 0.0 | 0.13 | 0.38 | 0.38 | 99 | 1009.5 |
| 20260509121337 | 7 | 64 | 1.6 | 3.2 | 0.00 | 0.36 | 0.36 | 99 | 1009.7 |
| 20260509120836 | 7 | 119 | 1.6 | 1.6 | 0.18 | 0.36 | 0.36 | 99 | 1009.7 |
| 20260509120333 | 7 | 103 | 0.0 | 0.0 | 0.18 | 0.36 | 0.36 | 99 | 1009.7 |
| 20260509115831 | 7 | 250 | 3.2 | 3.2 | 0.13 | 0.33 | 0.33 | 99 | 1009.9 |
| 20260509115328 | 7 | 169 | 0.0 | 0.0 | 0.30 | 0.33 | 0.33 | 99 | 1009.7 |
| 20260509114826 | 7 | 152 | 1.6 | 3.2 | 0.36 | 0.30 | 0.30 | 99 | 1009.8 |
| 20260509114324 | 7 | 162 | 1.6 | 1.6 | 0.30 | 0.28 | 0.28 | 99 | 1009.8 |
| 20260509113823 | 7 | 160 | 0.0 | 0.0 | 0.30 | 0.25 | 0.25 | 99 | 1009.8 |
| 20260509113319 | 7 | 152 | 0.0 | 0.0 | 0.30 | 0.23 | 0.23 | 99 | 1010.0 |
| 20260509112816 | 6 | 153 | 0.0 | 0.0 | 0.30 | 0.20 | 0.20 | 99 | 1009.8 |
| 20260509112314 | 6 | 152 | 0.0 | 0.0 | 0.30 | 0.18 | 0.18 | 99 | 1009.9 |
| 20260509111810 | 6 | 153 | 0.0 | 1.6 | 0.13 | 0.15 | 0.15 | 99 | 1009.7 |
| 20260509111307 | 6 | 152 | 0.0 | 0.0 | 0.30 | 0.13 | 0.13 | 98 | 1009.8 |
| 20260509110805 | 6 | 153 | 0.0 | 0.0 | 0.48 | 0.13 | 0.13 | 98 | 1009.6 |
| 20260509110301 | 7 | 148 | 0.0 | 0.0 | 0.30 | 0.10 | 0.10 | 98 | 1009.6 |
| 20260509105759 | 7 | 148 | 1.6 | 3.2 | 0.13 | 0.05 | 0.05 | 99 | 1009.4 |
| 20260509105257 | 7 | 130 | 0.0 | 1.6 | 0.13 | 0.05 | 0.05 | 99 | 1009.7 |
| 20260509104753 | 6 | 156 | 0.0 | 1.6 | 0.00 | 0.03 | 0.03 | 99 | 1009.6 |
| 20260509104250 | 6 | 176 | 0.0 | 0.0 | 0.00 | 0.03 | 0.03 | 98 | 1009.8 |
| 20260509103749 | 6 | 155 | 0.0 | 0.0 | 0.00 | 0.03 | 0.03 | 99 | 1009.5 |
| 20260509103245 | 6 | 118 | 1.6 | 1.6 | 0.00 | 0.03 | 0.03 | 99 | 1009.7 |
| 20260509102744 | 5 | 117 | 3.2 | 3.2 | 0.00 | 0.03 | 0.03 | 99 | 1009.6 |
| 20260509102240 | 5 | 128 | 0.0 | 0.0 | 0.00 | 0.03 | 0.03 | 98 | 1009.7 |
| 20260509101737 | 5 | 144 | 0.0 | 0.0 | 0.00 | 0.03 | 0.03 | 98 | 1009.7 |
| 20260509101233 | 5 | 85 | 0.0 | 0.0 | 0.00 | 0.03 | 0.03 | 98 | 1009.8 |
| 20260509100731 | 5 | 85 | 0.0 | 0.0 | 0.00 | 0.03 | 0.03 | 98 | 1009.6 |
| 20260509100228 | 5 | 85 | 0.0 | 0.0 | 0.00 | 0.03 | 0.03 | 98 | 1009.1 |
| 20260509095724 | 5 | 85 | 0.0 | 0.0 | 0.00 | 0.03 | 0.03 | 98 | 1009.4 |
| 20260509095222 | 4 | 85 | 0.0 | 0.0 | 0.00 | 0.03 | 0.03 | 98 | 1009.6 |
| 20260509094718 | 4 | 85 | 0.0 | 0.0 | 0.00 | 0.03 | 0.03 | 97 | 1009.6 |
| 20260509094215 | 4 | 85 | 0.0 | 0.0 | 0.00 | 0.03 | 0.03 | 97 | 1009.5 |
| 20260509093714 | 4 | 85 | 0.0 | 0.0 | 0.18 | 0.03 | 0.03 | 97 | 1009.5 |
| 20260509093210 | 4 | 85 | 0.0 | 0.0 | 0.18 | 0.03 | 0.03 | 97 | 1009.6 |
| 20260509092708 | 4 | 85 | 0.0 | 0.0 | 0.18 | 0.03 | 0.03 | 97 | 1009.4 |
| 20260509092206 | 4 | 85 | 0.0 | 0.0 | 0.00 | 0.00 | 0.00 | 97 | 1009.7 |
| 20260509091704 | 4 | 85 | 0.0 | 0.0 | 0.00 | 0.00 | 0.00 | 97 | 1009.6 |
| 20260509091200 | 4 | 85 | 0.0 | 0.0 | 0.00 | 0.00 | 0.00 | 97 | 1009.5 |
| 20260509090658 | 4 | 85 | 0.0 | 0.0 | 0.00 | 0.00 | 0.00 | 97 | 1009.6 |
| 20260509090155 | 4 | 85 | 0.0 | 0.0 | 0.00 | 0.00 | 0.00 | 97 | 1009.8 |
| 20260509085652 | 4 | 85 | 0.0 | 0.0 | 0.00 | 0.00 | 0.00 | 96 | 1009.6 |
| 20260509085148 | 4 | 85 | 0.0 | 0.0 | 0.00 | 0.00 | 0.00 | 96 | 1009.7 |
| 20260509084646 | 4 | 85 | 0.0 | 0.0 | 0.00 | 0.00 | 0.00 | 96 | 1009.9 |
| 20260509084143 | 4 | 85 | 0.0 | 0.0 | 0.00 | 0.00 | 0.00 | 96 | 1009.6 |
| 20260509083641 | 4 | 85 | 1.6 | 1.6 | 0.00 | 0.00 | 0.00 | 96 | 1009.7 |
| 20260509083136 | 4 | 85 | 0.0 | 0.0 | 0.00 | 0.00 | 0.00 | 96 | 1009.7 |
| 20260509082634 | 4 | 85 | 0.0 | 0.0 | 0.00 | 0.00 | 0.00 | 96 | 1009.6 |
| 20260509082130 | 4 | 85 | 0.0 | 0.0 | 0.00 | 0.00 | 0.00 | 96 | 1010.1 |
| 20260509081628 | 4 | 85 | 0.0 | 0.0 | 0.00 | 0.00 | 0.00 | 96 | 1010.0 |
| 20260509081125 | 4 | 85 | 0.0 | 0.0 | 0.00 | 0.00 | 0.00 | 95 | 1010.3 |
| 20260509080623 | 4 | 84 | 1.6 | 1.6 | 0.00 | 0.00 | 0.00 | 95 | 1009.9 |
| 20260509080120 | 4 | 85 | 0.0 | 0.0 | 0.00 | 0.00 | 0.00 | 95 | 1010.2 |
| 20260509075618 | 4 | 85 | 0.0 | 0.0 | 0.00 | 0.00 | 0.00 | 94 | 1010.2 |
| 20260509075116 | 5 | 85 | 0.0 | 0.0 | 0.00 | 0.00 | 0.00 | 94 | 1010.0 |
| 20260509074612 | 5 | 85 | 0.0 | 0.0 | 0.00 | 0.00 | 0.00 | 93 | 1010.0 |
| 20260509074109 | 4 | 85 | 0.0 | 0.0 | 0.00 | 0.00 | 0.00 | 93 | 1010.1 |
| 20260509073606 | 4 | 85 | 0.0 | 0.0 | 0.00 | 0.00 | 0.00 | 93 | 1010.0 |
| 20260509073102 | 4 | 85 | 0.0 | 0.0 | 0.00 | 0.00 | 0.00 | 94 | 1010.2 |
| 20260509072559 | 4 | 85 | 0.0 | 0.0 | 0.00 | 0.00 | 0.00 | 94 | 1010.1 |
| 20260509072055 | 4 | 85 | 0.0 | 0.0 | 0.00 | 0.00 | 0.00 | 93 | 1010.0 |
| 20260509071552 | 4 | 85 | 0.0 | 0.0 | 0.00 | 0.00 | 0.00 | 94 | 1010.0 |
| 20260509071049 | 4 | 85 | 0.0 | 0.0 | 0.00 | 0.00 | 0.00 | 94 | 1010.1 |
| 20260509070547 | 4 | 85 | 0.0 | 0.0 | 0.00 | 0.00 | 0.00 | 94 | 1010.1 |
| 20260509070043 | 4 | 85 | 0.0 | 0.0 | 0.00 | 0.00 | 0.00 | 94 | 1010.3 |
| 20260509065538 | 4 | 85 | 0.0 | 0.0 | 0.00 | 0.00 | 0.00 | 93 | 1010.0 |
| 20260509065035 | 4 | 85 | 0.0 | 0.0 | 0.00 | 0.00 | 0.00 | 93 | 1010.2 |
| 20260509064533 | 4 | 85 | 0.0 | 0.0 | 0.00 | 0.00 | 0.00 | 92 | 1010.2 |
| 20260509064031 | 4 | 85 | 0.0 | 0.0 | 0.00 | 0.00 | 0.00 | 91 | 1010.3 |
| 20260509063531 | 4 | 85 | 0.0 | 0.0 | 0.00 | 0.00 | 0.00 | 91 | 1010.4 |
| 20260509063029 | 4 | 85 | 0.0 | 0.0 | 0.00 | 0.00 | 0.00 | 89 | 1010.4 |
| 20260509062526 | 4 | 85 | 0.0 | 0.0 | 0.00 | 0.00 | 0.00 | 89 | 1010.5 |
| 20260509062024 | 4 | 85 | 0.0 | 0.0 | 0.00 | 0.00 | 0.00 | 89 | 1010.5 |
| 20260509061520 | 4 | 85 | 0.0 | 0.0 | 0.00 | 0.00 | 0.00 | 89 | 1010.7 |
| 20260509061018 | 4 | 85 | 0.0 | 0.0 | 0.00 | 0.00 | 0.00 | 87 | 1010.7 |
| 20260509060515 | 4 | 85 | 0.0 | 0.0 | 0.00 | 0.00 | 0.00 | 87 | 1010.7 |
| 20260509060011 | 4 | 85 | 0.0 | 0.0 | 0.00 | 0.00 | 0.00 | 87 | 1010.7 |
| 20260509055506 | 4 | 85 | 0.0 | 0.0 | 0.00 | 0.00 | 0.00 | 86 | 1010.6 |
| 20260509055003 | 4 | 85 | 0.0 | 0.0 | 0.00 | 0.00 | 0.00 | 85 | 1010.8 |
| 20260509054459 | 4 | 85 | 0.0 | 0.0 | 0.00 | 0.00 | 0.00 | 87 | 1011.0 |
| 20260509053958 | 4 | 85 | 0.0 | 0.0 | 0.00 | 0.00 | 0.00 | 86 | 1010.8 |
| 20260509053455 | 4 | 85 | 0.0 | 0.0 | 0.00 | 0.00 | 0.00 | 84 | 1010.9 |
| 20260509052952 | 4 | 85 | 0.0 | 0.0 | 0.00 | 0.00 | 0.00 | 84 | 1010.9 |
| 20260509052450 | 4 | 85 | 0.0 | 0.0 | 0.00 | 0.00 | 0.00 | 85 | 1010.9 |
| 20260509051948 | 4 | 85 | 0.0 | 0.0 | 0.00 | 0.00 | 0.00 | 86 | 1011.0 |
| 20260509051445 | 3 | 85 | 0.0 | 0.0 | 0.00 | 0.00 | 0.00 | 85 | 1011.1 |
| 20260509050942 | 3 | 85 | 0.0 | 0.0 | 0.00 | 0.00 | 0.00 | 85 | 1011.0 |
| 20260509050439 | 3 | 85 | 0.0 | 0.0 | 0.00 | 0.00 | 0.00 | 85 | 1010.9 |
| 20260509045935 | 4 | 85 | 0.0 | 0.0 | 0.00 | 0.00 | 0.00 | 85 | 1010.8 |
| 20260509045433 | 4 | 85 | 0.0 | 0.0 | 0.00 | 0.00 | 0.00 | 83 | 1010.9 |
| 20260509044929 | 4 | 85 | 1.6 | 1.6 | 0.00 | 0.00 | 0.00 | 84 | 1010.9 |
| 20260509044428 | 3 | 85 | 0.0 | 0.0 | 0.00 | 0.00 | 0.00 | 85 | 1011.2 |
| 20260509043924 | 3 | 85 | 0.0 | 0.0 | 0.00 | 0.00 | 0.00 | 84 | 1011.1 |
| 20260509043420 | 3 | 85 | 0.0 | 0.0 | 0.00 | 0.00 | 0.00 | 83 | 1011.0 |
| 20260509042916 | 3 | 85 | 0.0 | 0.0 | 0.00 | 0.00 | 0.00 | 83 | 1010.9 |
| 20260509042413 | 3 | 85 | 0.0 | 0.0 | 0.00 | 0.00 | 0.00 | 84 | 1011.2 |
| 20260509041909 | 3 | 85 | 0.0 | 0.0 | 0.00 | 0.00 | 0.00 | 84 | 1011.2 |
| 20260509041406 | 3 | 85 | 0.0 | 0.0 | 0.00 | 0.00 | 0.00 | 84 | 1011.2 |
| 20260509040904 | 3 | 85 | 0.0 | 0.0 | 0.00 | 0.00 | 0.00 | 86 | 1011.2 |
| 20260509040402 | 3 | 85 | 0.0 | 0.0 | 0.00 | 0.00 | 0.00 | 86 | 1011.2 |
| 20260509035858 | 3 | 85 | 0.0 | 0.0 | 0.00 | 0.15 | 0.15 | 87 | 1011.3 |
| 20260509035355 | 3 | 85 | 0.0 | 0.0 | 0.00 | 0.15 | 0.15 | 86 | 1011.2 |
| 20260509034852 | 3 | 85 | 0.0 | 0.0 | 0.00 | 0.15 | 0.15 | 84 | 1011.1 |
| 20260509034349 | 3 | 85 | 0.0 | 0.0 | 0.00 | 0.15 | 0.15 | 84 | 1011.5 |
| 20260509033846 | 3 | 85 | 0.0 | 0.0 | 0.00 | 0.15 | 0.15 | 84 | 1011.2 |
| 20260509033344 | 3 | 85 | 0.0 | 0.0 | 0.00 | 0.15 | 0.15 | 85 | 1011.1 |
| 20260509032840 | 3 | 85 | 0.0 | 0.0 | 0.00 | 0.15 | 0.15 | 85 | 1011.0 |
| 20260509032337 | 3 | 85 | 0.0 | 0.0 | 0.00 | 0.15 | 0.15 | 82 | 1011.0 |
| 20260509031835 | 4 | 85 | 0.0 | 0.0 | 0.00 | 0.15 | 0.15 | 81 | 1011.1 |
| 20260509031332 | 4 | 85 | 0.0 | 0.0 | 0.00 | 0.15 | 0.15 | 79 | 1011.3 |
| 20260509030830 | 4 | 85 | 0.0 | 0.0 | 0.00 | 0.15 | 0.15 | 80 | 1011.2 |
| 20260509030328 | 4 | 85 | 0.0 | 0.0 | 0.00 | 0.15 | 0.15 | 79 | 1011.5 |
| 20260509025824 | 5 | 85 | 0.0 | 0.0 | 0.00 | 0.15 | 0.15 | 78 | 1011.3 |
| 20260509025320 | 5 | 85 | 0.0 | 0.0 | 0.00 | 0.15 | 0.15 | 77 | 1011.3 |
| 20260509024815 | 5 | 85 | 0.0 | 0.0 | 0.00 | 0.15 | 0.15 | 78 | 1011.3 |
| 20260509024312 | 5 | 85 | 0.0 | 0.0 | 0.00 | 0.15 | 0.15 | 79 | 1011.5 |
| 20260509023809 | 6 | 85 | 0.0 | 0.0 | 0.00 | 0.15 | 0.15 | 74 | 1011.4 |
| 20260509023306 | 6 | 85 | 0.0 | 0.0 | 0.00 | 0.15 | 0.15 | 66 | 1011.3 |
| 20260509022802 | 6 | 85 | 0.0 | 0.0 | 0.00 | 0.15 | 0.15 | 69 | 1011.1 |
| 20260509022300 | 6 | 85 | 1.6 | 3.2 | 0.00 | 0.15 | 0.15 | 70 | 1011.3 |
| 20260509021757 | 6 | 85 | 0.0 | 1.6 | 0.00 | 0.15 | 0.15 | 71 | 1011.3 |
| 20260509021254 | 6 | 85 | 0.0 | 0.0 | 0.00 | 0.15 | 0.15 | 73 | 1011.5 |
| 20260509020752 | 6 | 85 | 0.0 | 0.0 | 0.00 | 0.15 | 0.15 | 78 | 1011.5 |
| 20260509020249 | 6 | 85 | 0.0 | 0.0 | 0.00 | 0.15 | 0.15 | 80 | 1011.5 |
| 20260509015747 | 6 | 85 | 0.0 | 0.0 | 0.00 | 0.15 | 0.15 | 78 | 1011.8 |
| 20260509015245 | 6 | 85 | 0.0 | 0.0 | 0.00 | 0.15 | 0.15 | 72 | 1011.3 |
| 20260509014741 | 6 | 85 | 0.0 | 0.0 | 0.00 | 0.15 | 0.15 | 73 | 1011.2 |
| 20260509014238 | 6 | 85 | 0.0 | 0.0 | 0.00 | 0.15 | 0.15 | 76 | 1011.1 |
| 20260509013735 | 6 | 85 | 0.0 | 0.0 | 0.00 | 0.15 | 0.15 | 77 | 1011.2 |
| 20260509013230 | 7 | 85 | 0.0 | 0.0 | 0.00 | 0.15 | 0.15 | 74 | 1011.3 |
| 20260509012727 | 7 | 85 | 0.0 | 0.0 | 0.00 | 0.15 | 0.15 | 68 | 1011.3 |
| 20260509012224 | 7 | 85 | 0.0 | 0.0 | 0.00 | 0.15 | 0.15 | 73 | 1011.3 |
| 20260509011721 | 7 | 85 | 0.0 | 0.0 | 0.00 | 0.15 | 0.15 | 73 | 1011.1 |
| 20260509011219 | 7 | 85 | 0.0 | 0.0 | 0.00 | 0.15 | 0.15 | 71 | 1010.8 |
| 20260509010717 | 7 | 85 | 0.0 | 0.0 | 0.00 | 0.15 | 0.15 | 72 | 1010.9 |
| 20260509010212 | 7 | 85 | 0.0 | 0.0 | 0.00 | 0.15 | 0.15 | 74 | 1010.9 |
| 20260509005710 | 7 | 85 | 0.0 | 0.0 | 0.00 | 0.15 | 0.15 | 74 | 1010.8 |
| 20260509005207 | 7 | 85 | 0.0 | 0.0 | 0.00 | 0.15 | 0.15 | 74 | 1010.8 |
| 20260509004702 | 7 | 85 | 0.0 | 0.0 | 0.00 | 0.15 | 0.15 | 73 | 1010.5 |
| 20260509004200 | 7 | 85 | 0.0 | 0.0 | 0.00 | 0.15 | 0.15 | 71 | 1010.7 |
| 20260509003658 | 7 | 85 | 0.0 | 0.0 | 0.00 | 0.15 | 0.15 | 70 | 1010.5 |
| 20260509003155 | 7 | 85 | 0.0 | 0.0 | 0.00 | 0.15 | 0.15 | 69 | 1010.6 |
| 20260509002652 | 7 | 85 | 0.0 | 0.0 | 0.00 | 0.15 | 0.15 | 69 | 1010.6 |
| 20260509002149 | 8 | 85 | 0.0 | 0.0 | 0.00 | 0.15 | 0.15 | 68 | 1010.5 |
| 20260509001647 | 8 | 85 | 0.0 | 0.0 | 0.00 | 0.15 | 0.15 | 65 | 1010.4 |
| 20260509001142 | 8 | 85 | 0.0 | 0.0 | 0.00 | 0.15 | 0.15 | 62 | 1010.3 |
| 20260509000641 | 8 | 85 | 1.6 | 1.6 | 0.00 | 0.15 | 0.15 | 61 | 1010.1 |